Wind_Speed
18 14 15 19 24 23 23 23 23 21 23 39 41 39 42 39 45 50 63 76 84 75 76 78 77 79 76 73 64 58 50 53 49 55 51 45 45 45 41 34 32 30 27 23
12 15 21 22 19 20 21 26 19 22 25 34 35 36 34 32 39 41 54 70 85 82 73 72 75 82 79 75 63 58 48 46 46 50 51 52 55 47 45 38 35 33 29 25
14 19 22 22 21 25 20 23 25 25 25 37 38 37 30 25 33 36 39 61 77 88 82 76 75 72 82 78 65 56 45 48 46 56 45 45 41 46 37 38 38 34 28 28
17 20 22 21 21 25 27 22 27 30 27 32 37 44 33 31 31 32 34 36 68 84 88 82 78 73 80 82 69 59 50 49 43 45 54 50 47 46 44 44 36 34 31 32
14 20 23 22 25 26 24 25 30 29 33 32 35 42 24 30 35 32 31 34 42 78 91 85 84 78 80 82 74 63 49 45 46 44 47 43 36 51 55 52 47 35 33 37
17 21 27 27 25 26 25 27 27 24 28 36 25 29 6 13 17 29 36 36 38 43 93 92 85 82 81 78 72 67 55 51 45 42 44 44 48 60 42 32 40 37 37 37
19 24 29 30 29 23 26 25 31 30 30 30 22 32 24 12 17 23 29 30 38 44 55 98 89 85 81 80 71 66 57 49 48 42 44 49 41 43 33 40 41 46 38 36
24 18 24 25 27 26 23 26 29 41 37 31 31 34 23 19 26 24 26 34 31 34 50 67 99 86 87 83 77 69 58 50 45 41 41 44 50 50 40 48 36 40 33 36
28 25 23 23 23 25 28 26 26 31 35 38 38 32 28 27 27 28 28 30 33 39 42 55 80 98 91 89 79 68 60 50 48 44 43 46 49 51 58 41 51 36 16 7
28 26 16 15 20 19 25 24 26 32 38 42 41 35 28 27 26 27 28 26 28 33 43 57 63 79 94 85 77 68 59 50 49 45 43 43 46 45 29 43 47 39 24 11
28 26 15 17 25 22 23 25 23 25 31 40 40 38 33 31 28 32 27 29 28 31 45 61 68 66 78 77 73 68 61 56 53 48 45 45 46 43 44 44 40 40 27 11
24 27 23 21 22 25 21 18 21 25 28 32 33 32 28 29 32 28 32 22 33 37 52 72 74 70 74 77 74 70 65 57 54 50 49 45 41 38 40 45 34 32 22 19
24 25 31 25 23 23 16 16 21 27 33 30 33 36 31 28 28 32 31 30 31 39 56 74 74 71 74 77 73 68 63 61 56 54 50 42 36 34 34 37 34 35 17 30
25 23 23 25 24 23 19 19 23 25 25 24 31 30 26 29 26 30 22 21 25 39 51 67 76 77 73 75 69 65 63 60 59 55 47 42 37 37 42 37 31 27 29 15
20 20 25 22 22 19 21 23 23 29 23 28 22 31 21 24 27 28 26 17 24 44 52 77 74 73 76 69 66 65 62 63 59 55 47 42 40 37 42 40 32 34 13 8
21 25 23 12 19 23 25 14 13 16 19 21 18 22 23 24 19 23 15 13 26 46 55 78 71 74 67 66 65 63 64 62 59 53 48 44 45 43 55 40 35 12 6 15
24 28 29 12 18 19 17 15 22 17 16 17 15 18 23 21 15 21 16 24 34 59 56 64 71 67 65 65 64 60 61 59 55 52 50 45 41 54 41 31 28 14 13 16
27 32 31 13 15 15 14 14 14 14 12 15 11 16 17 12 10 12 15 34 49 49 40 55 76 66 59 59 62 55 58 55 50 49 47 56 61 48 33 20 18 12 12 12
26 26 22 14 13 14 12 8 13 19 19 9 4 12 14 7 5 9 8 46 48 49 32 61 70 55 54 51 49 44 31 43 48 49 54 63 55 31 25 19 13 9 15 21
29 28 17 13 11 9 9 12 16 17 17 14 7 12 14 10 12 17 21 44 54 51 49 60 54 51 48 48 48 36 44 43 48 67 65 46 37 31 24 15 12 18 22 20
24 24 15 8 9 9 11 13 18 18 16 12 7 14 13 15 17 28 32 48 50 45 54 56 49 47 46 45 43 22 22 21 42 52 40 37 33 25 20 21 25 22 19 15
27 23 15 6 9 9 9 14 17 17 17 12 7 14 14 13 24 30 35 39 43 49 48 59 49 45 35 32 29 26 25 35 42 42 37 29 25 21 19 20 19 16 12 12
26 24 18 8 7 7 10 9 15 12 14 6 5 23 13 18 28 42 42 43 32 36 48 48 46 41 28 31 36 37 33 38 37 36 30 25 22 22 23 19 14 11 8 7
27 21 14 8 5 7 6 5 8 11 8 7 14 17 20 32 33 37 39 31 46 55 48 43 43 40 40 39 41 43 39 36 36 32 26 22 23 22 19 13 7 2 3 8
23 15 10 8 5 7 5 4 4 4 15 11 10 21 28 40 36 41 39 37 30 37 58 46 45 48 35 32 36 39 36 29 23 21 20 21 19 14 8 5 2 2 4 4
16 15 11 8 4 4 2 5 5 8 15 19 21 34 31 31 37 49 25 36 38 42 54 58 46 46 43 41 40 36 28 25 22 20 19 16 12 9 8 4 1 2 2 1
Wind_Direction
287 293 283 278 284 290 283 274 270 262 248 244 253 250 254 245 244 230 220 213 211 208 210 214 216 222 233 242 243 239 240 238 234 215 214 219 228 226 226 229 237 246 256 263
268 301 289 294 295 297 299 290 285 257 257 246 244 251 256 257 261 249 228 213 213 212 209 212 214 221 226 238 244 244 245 247 242 223 214 212 222 208 219 227 236 245 253 260
298 295 306 304 303 296 290 286 284 279 241 248 256 255 253 255 251 255 247 220 210 209 211 211 212 217 223 234 240 241 241 244 240 242 241 232 215 207 223 228 236 244 251 257
305 299 300 300 305 287 289 287 277 277 272 253 249 262 256 256 262 254 252 245 211 209 211 209 211 211 224 229 237 237 229 238 241 237 240 246 207 227 224 227 232 239 248 252
299 292 293 303 294 284 294 280 278 275 269 266 260 267 279 260 257 255 244 243 231 206 208 209 212 208 220 227 234 234 225 227 235 236 231 222 205 215 222 227 227 228 241 251
298 295 297 298 289 286 281 278 278 282 276 268 274 270 331 281 259 236 243 246 236 222 206 209 207 206 216 224 228 230 221 217 228 237 234 236 226 232 227 238 229 220 235 247
291 294 292 294 294 278 276 277 282 279 273 283 276 261 263 293 255 241 246 248 240 224 213 208 202 205 212 219 221 228 223 220 220 228 230 227 240 242 247 245 250 243 223 232
300 288 295 296 297 289 272 265 260 274 273 280 262 261 264 264 258 260 257 248 243 236 218 209 205 201 207 215 218 222 223 220 220 224 230 235 237 244 249 252 243 206 219 247
309 317 324 309 301 295 289 269 261 258 259 266 268 265 269 256 261 255 263 264 257 238 228 206 207 200 206 213 216 220 219 217 218 221 229 236 237 240 248 240 251 284 259 9
314 320 323 297 295 304 299 290 273 262 264 265 259 266 268 261 262 262 259 262 239 242 230 209 193 199 205 212 213 216 216 218 219 223 227 232 237 229 244 246 254 257 303 309
312 316 327 312 304 305 297 286 276 275 265 265 265 262 264 271 276 269 268 258 249 248 221 199 183 189 197 201 207 210 214 214 213 219 227 233 236 237 238 248 253 260 278 292
315 321 323 310 294 298 301 294 279 266 272 263 263 262 264 276 286 280 271 258 250 234 210 194 186 186 189 194 201 202 209 210 211 216 223 230 237 242 231 237 246 254 248 261
313 321 323 327 321 318 310 301 288 279 273 268 256 263 277 283 281 284 282 281 252 234 206 188 186 182 185 190 195 199 204 206 207 215 220 225 231 235 233 239 238 237 225 259
303 315 325 330 326 313 308 297 297 295 281 278 265 269 268 270 286 280 288 277 244 213 207 190 182 185 184 186 189 195 201 204 208 213 215 219 224 229 232 229 226 227 247 246
302 305 318 323 328 315 316 307 278 277 295 284 284 263 267 277 277 283 300 281 215 195 195 178 182 183 182 179 185 193 199 202 206 211 211 216 221 221 226 198 215 247 197 249
314 309 316 319 321 317 329 324 322 299 282 297 283 255 259 271 287 294 320 200 185 186 183 181 190 185 174 176 184 191 199 201 205 209 210 212 215 221 206 195 215 206 219 268
313 315 318 324 309 317 319 311 307 315 304 302 285 270 250 260 281 291 260 194 179 180 184 185 190 183 175 180 184 194 199 202 206 207 212 213 217 203 189 196 202 189 223 247
314 304 311 322 309 324 316 313 320 324 328 318 282 257 254 245 257 273 259 188 185 180 181 188 185 185 176 181 188 195 201 201 205 211 215 201 221 184 168 154 179 179 240 248
328 322 326 309 314 323 329 337 341 327 324 304 336 247 248 218 217 231 205 168 175 175 167 183 183 173 173 182 191 195 206 191 201 212 215 199 185 149 143 167 180 211 233 242
337 336 333 304 324 311 315 351 349 336 344 345 278 219 201 202 197 209 199 173 171 166 168 171 168 170 178 189 192 184 199 207 203 207 200 159 148 141 160 169 198 221 233 242
343 338 336 293 321 321 328 336 333 339 338 348 214 204 192 188 197 201 196 173 167 166 167 165 170 178 184 193 200 210 233 215 201 181 159 130 136 136 150 190 208 220 234 254
346 347 334 300 305 312 310 328 344 351 346 345 220 205 190 201 192 197 205 185 179 166 153 167 170 172 181 191 196 213 195 164 156 131 127 126 140 152 181 197 209 223 245 267
340 337 330 328 323 290 296 310 352 348 336 345 150 194 186 181 184 181 179 188 162 156 160 165 171 166 166 161 151 148 154 161 131 123 134 146 154 174 188 197 207 221 252 286
336 330 323 322 326 320 307 301 331 10 4 69 139 155 176 177 181 184 174 177 137 156 158 170 176 176 150 147 130 119 128 128 126 138 149 155 169 179 185 187 199 222 302 298
337 335 329 307 281 284 330 359 306 20 118 78 130 133 153 176 183 178 169 196 147 147 154 164 169 180 182 157 140 123 124 129 134 138 154 167 168 164 154 138 106 322 293 294
341 331 315 265 275 240 342 53 93 83 143 103 139 136 148 170 179 179 188 145 147 150 152 150 151 153 159 150 133 130 137 140 146 160 162 153 138 130 124 113 110 255 276 346
Height
5688 5689 5688 5686 5682 5680 5677 5675 5674 5677 5676 5671 5673 5670 5676 5680 5680 5689 5703 5713 5725 5736 5751 5754 5764 5765 5769 5777 5790 5801 5814 5818 5823 5830 5837 5843 5850 5854 5859 5860 5861 5864 5867 5870
5687 5684 5681 5679 5677 5674 5671 5668 5669 5668 5669 5665 5664 5664 5671 5671 5670 5676 5686 5697 5709 5725 5736 5744 5754 5753 5760 5768 5781 5789 5802 5804 5814 5824 5829 5830 5835 5844 5848 5851 5853 5857 5862 5866
5680 5678 5675 5672 5671 5666 5666 5663 5661 5659 5661 5658 5656 5655 5659 5665 5662 5666 5668 5681 5692 5709 5724 5732 5740 5747 5750 5756 5771 5783 5797 5801 5810 5816 5826 5824 5828 5836 5839 5845 5848 5854 5857 5858
5674 5672 5670 5669 5667 5662 5658 5658 5654 5652 5651 5651 5653 5643 5653 5655 5655 5656 5661 5666 5677 5692 5705 5718 5729 5739 5742 5748 5758 5773 5788 5795 5806 5812 5818 5822 5813 5831 5833 5836 5840 5846 5850 5852
5670 5668 5665 5663 5660 5655 5653 5650 5647 5645 5642 5641 5642 5640 5641 5646 5646 5649 5650 5653 5659 5671 5688 5703 5714 5729 5735 5740 5751 5761 5778 5785 5795 5803 5812 5816 5820 5823 5820 5822 5830 5836 5841 5843
5665 5661 5657 5656 5654 5648 5645 5642 5639 5638 5636 5632 5638 5635 5630 5636 5637 5638 5641 5644 5648 5655 5667 5684 5700 5716 5727 5733 5741 5749 5765 5777 5787 5791 5797 5802 5810 5795 5810 5816 5825 5824 5830 5838
5658 5655 5651 5649 5645 5643 5639 5636 5631 5630 5629 5625 5631 5626 5626 5632 5631 5632 5633 5635 5637 5642 5652 5664 5684 5701 5717 5721 5734 5741 5754 5766 5777 5785 5793 5789 5802 5781 5806 5814 5815 5817 5820 5824
5649 5652 5646 5640 5635 5631 5630 5628 5626 5620 5620 5620 5619 5615 5622 5623 5621 5623 5625 5626 5628 5632 5636 5647 5666 5683 5703 5711 5723 5734 5748 5760 5767 5773 5781 5789 5795 5799 5808 5810 5803 5806 5813 5817
5640 5639 5637 5630 5626 5624 5619 5618 5617 5612 5611 5608 5608 5610 5612 5613 5613 5614 5615 5614 5617 5621 5625 5632 5647 5668 5686 5698 5715 5731 5739 5752 5762 5768 5773 5781 5788 5794 5801 5805 5809 5810 5812 5809
5633 5630 5630 5627 5621 5618 5612 5610 5608 5606 5603 5600 5599 5600 5602 5605 5605 5604 5605 5605 5604 5609 5613 5620 5631 5652 5674 5690 5707 5725 5735 5743 5751 5760 5769 5778 5782 5789 5788 5799 5802 5808 5801 5808
5627 5624 5626 5620 5614 5611 5607 5602 5600 5598 5595 5592 5590 5592 5599 5597 5595 5593 5594 5594 5595 5595 5599 5608 5624 5642 5658 5684 5700 5717 5728 5735 5743 5752 5759 5765 5771 5783 5795 5795 5800 5802 5802 5805
5623 5617 5615 5615 5609 5604 5600 5597 5594 5590 5588 5586 5585 5582 5588 5588 5586 5583 5581 5584 5584 5582 5590 5601 5611 5629 5651 5672 5691 5707 5718 5729 5739 5749 5753 5759 5766 5776 5784 5787 5793 5796 5800 5804
5618 5614 5607 5606 5604 5598 5594 5591 5587 5583 5579 5578 5579 5576 5581 5581 5577 5574 5573 5572 5570 5571 5580 5595 5609 5626 5644 5662 5682 5700 5712 5720 5732 5740 5749 5758 5765 5770 5773 5781 5787 5790 5792 5799
5612 5610 5606 5601 5597 5592 5590 5586 5582 5577 5572 5573 5570 5573 5577 5573 5569 5566 5564 5562 5560 5563 5574 5589 5608 5621 5639 5656 5676 5692 5703 5715 5725 5736 5746 5754 5761 5766 5770 5776 5780 5784 5789 5794
5609 5606 5601 5597 5591 5588 5584 5580 5576 5571 5569 5564 5568 5563 5568 5564 5563 5561 5559 5556 5558 5563 5578 5594 5606 5617 5632 5651 5668 5683 5696 5707 5719 5730 5741 5749 5755 5761 5766 5768 5775 5781 5784 5788
5604 5599 5595 5592 5587 5582 5579 5572 5570 5566 5564 5562 5560 5559 5558 5560 5561 5556 5554 5552 5556 5567 5581 5596 5607 5617 5632 5646 5662 5677 5687 5702 5714 5725 5735 5742 5749 5757 5759 5759 5771 5776 5780 5784
5600 5593 5588 5586 5582 5578 5576 5572 5567 5564 5561 5557 5555 5552 5552 5557 5558 5553 5552 5559 5562 5569 5585 5597 5609 5622 5632 5649 5662 5673 5686 5700 5713 5721 5727 5735 5743 5742 5746 5755 5768 5773 5778 5782
5595 5589 5584 5581 5578 5576 5572 5568 5564 5561 5558 5553 5550 5548 5551 5555 5555 5551 5554 5556 5564 5572 5586 5598 5607 5621 5636 5649 5661 5673 5686 5700 5708 5718 5726 5723 5729 5728 5741 5756 5768 5770 5776 5778
5592 5584 5580 5577 5575 5574 5569 5566 5563 5559 5555 5552 5549 5547 5550 5553 5554 5550 5549 5556 5565 5575 5586 5595 5612 5627 5641 5652 5663 5675 5680 5696 5702 5709 5713 5710 5718 5727 5742 5759 5764 5767 5772 5775
5587 5580 5577 5575 5573 5572 5569 5565 5561 5556 5554 5551 5549 5549 5551 5553 5551 5552 5556 5562 5570 5579 5591 5603 5617 5632 5643 5654 5664 5676 5682 5678 5695 5693 5706 5703 5714 5732 5747 5755 5757 5763 5769 5771
5586 5579 5575 5572 5572 5571 5567 5565 5561 5558 5558 5551 5551 5550 5552 5552 5553 5555 5559 5568 5579 5590 5598 5611 5625 5637 5645 5654 5662 5668 5675 5683 5691 5699 5704 5711 5722 5734 5741 5754 5761 5763 5765 5766
5582 5577 5572 5571 5570 5570 5566 5564 5560 5558 5553 5553 5552 5553 5552 5554 5554 5560 5565 5574 5586 5592 5596 5619 5629 5640 5650 5658 5664 5674 5681 5688 5692 5696 5708 5718 5726 5734 5745 5751 5756 5759 5762 5764
5579 5574 5570 5569 5568 5566 5564 5563 5560 5556 5554 5551 5552 5553 5554 5555 5561 5567 5576 5581 5587 5591 5610 5624 5635 5646 5648 5656 5669 5672 5681 5691 5698 5706 5715 5722 5729 5740 5747 5752 5756 5759 5760 5759
5576 5571 5567 5567 5566 5564 5562 5562 5560 5556 5555 5554 5554 5554 5557 5560 5567 5575 5584 5587 5597 5608 5619 5630 5641 5651 5655 5662 5669 5674 5685 5693 5703 5714 5721 5728 5735 5741 5747 5751 5754 5755 5754 5756
5573 5569 5566 5565 5563 5563 5561 5562 5560 5560 5559 5557 5557 5559 5564 5571 5577 5584 5591 5593 5602 5611 5622 5634 5642 5652 5660 5667 5674 5683 5691 5700 5709 5716 5724 5732 5737 5741 5744 5746 5747 5750 5752 5753
5572 5568 5565 5562 5562 5561 5562 5562 5560 5561 5562 5562 5562 5566 5571 5577 5586 5589 5595 5594 5612 5618 5626 5632 5644 5654 5662 5671 5679 5689 5697 5704 5713 5721 5727 5732 5735 5738 5741 5745 5748 5750 5750 5751